Location: Espelette
(43.3402°N, 1.4474°W)
Time: 06:16:50
(UTC+00:00)

CZ-4B R/B - Pass Details

Date: 19 May 2025
Orbit: 449 x 582 km, 97.8° (Epoch: 18 June)

Event Time Altitude Azimuth Distance (km) Brightness Sun altitude
Exits shadow 20:16:07 - 164° (SSE) 2,292 5.5 -8.2°
Reaches altitude 10° 20:17:07 10° 164° (SSE) 1,876 5.1 -8.3°
Maximum altitude 20:21:12 84° 78° (ENE) 572 2.8 -8.9°
Drops below altitude 10° 20:25:11 10° 349° (NNW) 1,830 6.3 -9.5°
Sets 20:27:16 0° 348° (NNW) 2,707 7.3 -9.8°
